Swansboro, NC

11:47 AM EDT on April 27, 2017 (GMT -0400)
Bogue McAlf

Weather History for KNJM - October, 2013

Change the Weather History Date:

Friday, October 11, 2013

  Actual Average (KNKT) Record (KNKT)
Temperature  
Mean Temperature 64 °F -  
Max Temperature 66 °F 73 °F 86 °F (2014)
Min Temperature 61 °F 54 °F 37 °F (2000)
Degree Days  
Heating Degree Days 2    
Growing Degree Days 14 (Base 50)    
Moisture  
Dew Point 59 °F    
Average Humidity 85    
Maximum Humidity 90    
Minimum Humidity 79    
Precipitation  
Precipitation 0.00 in - - ()
Sea Level Pressure  
Sea Level Pressure 29.93 in    
Wind  
Wind Speed 6 mph (NW)    
Max Wind Speed 10 mph    
Max Gust Speed -    
Visibility 9 miles    
Events      
Averages and records for this station are not official NWS values.
T = Trace of Precipitation, MM = Missing Value Source: NWS Daily Summary

Daily Weather History Graph

Daily Weather History Graph

Search for Another Location

Airport or City:

Trip Planner

Search our weather history database for the weather conditions in past years. The results will help you decide how hot, cold, wet, or windy it might be!

Date:

Astronomy

Oct. 11, 2013 Rise Set
Actual Time 7:10 AM EDT 6:38 PM EDT
Civil Twilight 6:45 AM EDT 7:03 PM EDT
Nautical Twilight 6:16 AM EDT 7:32 PM EDT
Astronomical Twilight 5:46 AM EDT 8:01 PM EDT
Moon 1:43 PM EDT (10/11) No Moon Set
Length of Visible Light 12h 18m
Length of Day
11h 27m
Waxing Crescent, 47% of the Moon is Illuminated
Oct 11
Waxing Crescent
Oct 11
First Quarter
Oct 18
Full
Oct 26
Last Quarter
Nov 3
New

Hourly Weather History & Observations

Time (EDT) Temp. Dew Point Humidity Pressure Visibility Wind Dir Wind Speed Gust Speed Precip Events Conditions
12:57 AM 61.0 °F 57.9 °F 90% 29.89 in 9.0 mi WNW 5.8 mph - N/A   Overcast
1:57 AM 61.0 °F 57.9 °F 90% 29.90 in 4.0 mi NW 6.9 mph - N/A   Overcast
2:57 AM 61.0 °F 57.9 °F 90% 29.88 in 10.0 mi WNW 8.1 mph - N/A   Overcast
3:57 AM 61.0 °F 57.9 °F 90% 29.88 in 3.0 mi NW 6.9 mph - N/A   Overcast
4:57 AM 61.0 °F 57.9 °F 90% 29.89 in 5.0 mi WNW 5.8 mph - N/A   Overcast
5:57 AM 61.0 °F 57.0 °F 87% 29.91 in 6.0 mi NW 8.1 mph - N/A   Overcast
6:57 AM 61.0 °F 57.0 °F 87% 29.92 in 10.0 mi NW 6.9 mph - N/A   Overcast
7:57 AM 61.0 °F 57.0 °F 87% 29.94 in 10.0 mi NW 6.9 mph - N/A   Overcast
8:57 AM 62.1 °F 57.9 °F 86% 29.95 in 10.0 mi NW 6.9 mph - N/A   Overcast
9:34 AM 62.1 °F 57.9 °F 86% 29.94 in 10.0 mi NW 9.2 mph - N/A   Overcast
9:57 AM 62.1 °F 57.9 °F 86% 29.95 in 10.0 mi NW 9.2 mph - N/A   Overcast
10:57 AM 63.0 °F 59.0 °F 87% 29.95 in 10.0 mi NW 6.9 mph - N/A   Overcast
11:57 AM 66.0 °F 60.1 °F 81% 29.95 in 10.0 mi NW 9.2 mph - N/A   Overcast
12:57 PM 66.0 °F 60.1 °F 81% 29.94 in 10.0 mi NW 9.2 mph - N/A   Overcast
1:17 PM - - N/A% 29.92 in 10.0 mi WNW 9.2 mph - N/A   Overcast
1:36 PM 66.9 °F 60.1 °F 79% 29.92 in 10.0 mi NW 10.4 mph - N/A   Overcast
1:57 PM 66.9 °F 61.0 °F 81% 29.92 in 10.0 mi NW 5.8 mph - N/A   Overcast
2:57 PM 66.0 °F 60.1 °F 81% 29.92 in 10.0 mi NW 8.1 mph - N/A   Overcast
3:57 PM 66.9 °F 60.1 °F 79% 29.92 in 10.0 mi NW 6.9 mph - N/A   Overcast
4:57 PM 66.0 °F 60.1 °F 81% 29.92 in 10.0 mi NNW 4.6 mph - N/A   Overcast
5:57 PM 66.0 °F 60.1 °F 81% 29.93 in 10.0 mi WNW 5.8 mph - N/A   Overcast
6:57 PM - - N/A% 29.94 in 10.0 mi Calm Calm - 0.00 in   Overcast
7:45 PM - - N/A% 29.93 in 10.0 mi Calm Calm - N/A   Overcast
7:57 PM - - N/A% 29.96 in 10.0 mi NW 3.5 mph - N/A   Overcast
8:57 PM 64.9 °F 61.0 °F 87% 29.96 in 10.0 mi Calm Calm - 0.00 in   Overcast
9:38 PM 64.9 °F 61.0 °F 87% 29.95 in 10.0 mi WNW 3.5 mph - N/A   Overcast
9:57 PM 64.9 °F 61.0 °F 87% 29.97 in 10.0 mi Calm Calm - N/A   Overcast
10:57 PM - - N/A% 29.98 in 10.0 mi West 3.5 mph - N/A   Overcast
11:05 PM - - N/A% 29.96 in 10.0 mi WNW 3.5 mph - N/A   Overcast
11:57 PM - - N/A% 29.97 in 10.0 mi Calm Calm - N/A   Overcast